Tracking 30995 objects as of 5-Jul-2025
HD Live streaming from Space Station
objects crossing your sky now

COSMOS 1275 DEB

Track COSMOS 1275 DEB now!
10-day predictions


NORAD ID: 12740
Int'l Code: 1981-053CH
Perigee: 763.0 km
Apogee: 786.0 km
Inclination: 82.8 °
Period: 100.2 minutes
Semi major axis: 7145 km
RCS: 0.0069 m2 (small)
Launch date: June 4, 1981
Source: Commonwealth of Independent States (former USSR) (CIS)
Launch site: PLESETSK MISSILE AND SPACE COMPLEX (PKMTR)

Note: This is SATELLITE DEBRIS
Your satellite tracking list
STARLINK-3730
Track 1 satellite(s)




NASA's NSSDC Master Catalog

Two Line Element Set (TLE):
1 12740U 81053CH  25185.88714916  .00003653  00000-0  12175-2 0  9991
2 12740  82.8374 132.0482 0016054 110.5862 304.3393 14.37321086247369
Source of the keplerian elements: AFSPC